OneWeb SL0157

operational
NORAD ID: 48055 Int'l Des: 2021-025 Owner: ONEWEBN Country: UK Constellation: oneweb
LEOCIRCULARPOLARONEWEB_TYPE

OneWeb SL0157について

説明を読み込み中...

リアルタイム位置

3D地球を読み込み中...

次回通過

高度履歴

Altitude vs Time

uPlot chart will show altitude changes over time

軌道要素

1 48055U 21025P 26094.94702272 -.00000101 00000-0 -31036-3 0 9996
2 48055 87.9009 334.8003 0001741 66.4857 293.6455 13.13470942243958
Epoch: Apr 4, 2026 • Age: 10 hours

現在のステータス

高度 1212.3 km
速度 7.25 km/s
衛星直下点 8.90°N, 170.35°W
打ち上げ日 Mar 25, 2021
運用期間 5 years
タイプ internet

技術仕様

分類 Payload
質量 148.00 kg
乾燥質量 140.00 kg
総質量 148.00 kg
長さ 1.30 m
直径 1.00 m
スパン 5.00 m
形状 Trapezoid+2 pan
製造者 ONEWUS
バスタイプ ARROW
フェーズステータス In Orbit
所有者/国 ONEWEBN/UK

大規模コンステレーション

Loading constellations...